Погода в Бакале

Россия / Челябинская область     54°56′17″N   58°48′33″E
темп.,
°C
ветер,
м/с
пор.,
м/с
влажн.,
%
обл.,
%
осадки,
мм/ч
давл.,
гПа
погр.,
м
28 февраля, вс
вс2823:00−16юв2292100 0.2 100841
02:00−16юв229197 0.0 100740
05:00−16юв229298 0.0 100671
08:00−15юв2295100 0.2 100570
11:00−10юв2388100 0.3 1004243
14:00−6юв1284100 0.0 1004405
17:00−6вюв1292100 0.2 1004278
20:00−10юв119697 0.3 100722
1 марта, пн
пн123:00−12юв119693 0.4 100921
02:00−13юв119692 0.2 101121
05:00−13юв119794 0.6 101220
08:00−13юв119799 0.4 101420
11:00−9зсз119195 0.6 1015313
14:00−8ссз1290100 0.3 1015385
17:00−9сз2393100 0.7 1016357
20:00−13з1297100 0.4 101721
2 марта, вт
вт223:00−17юз129892 0.4 101820
02:00−18юз229896 0.1 101720
05:00−19юз229998 0.1 101634
08:00−21ююз239854 0.0 101535
11:00−14ююз248946 0.0 1013246
14:00−8юз388179 0.0 1010554
17:00−8ююз398789 0.0 1007615
20:00−9юз31092100 0.1 1006712
3 марта, ср
ср323:00−13ююз3990100 0.1 1006520
02:00−13ююз31087100 0.0 1004433
05:00−13ю3589100 0.0 1002145
08:00−13ю349199 0.0 100081
11:00−5юз388598 0.0 1000521
14:00−2зюз488496 0.0 9991010
17:00−3з489098 0.4 999782
20:00−7зюз229798 0.1 100052
4 марта, чт
чт423:00−8з119799 0.3 100224
02:00−10зюз1297100 0.1 100121
05:00−10ююз239698 0.4 100267
08:00−9зюз3995100 0.6 1003406
11:00−8зсз4794100 1.6 1004587
14:00−7з5785100 0.3 1005972
17:00−9з51088100 0.4 1006801
20:00−11ююз4149079 0.0 1005545